#timestamp,LO_Frequency,Hit,StdDev 
1546088415.8,286046994.9,Y
1546088435.6,286046998.4,P
1546088455.5,286046999.7,N
1546088475.3,286046998.8,N
1546088495.1,286046999.4,N
1546088515.9,286047001.2,N
1546088535.7,286046999.0,N
1546088555.5,286046999.0,N
1546088575.4,286047000.0,N
1546088595.2,286046998.7,N
1546088615.1,286047000.9,N
1546088616.0,286047000.9,N
1546088635.8,286047001.6,N
1546088655.6,286047003.3,N
1546088675.5,286047002.2,N
1546088695.3,286047001.8,N
1546088715.1,286047001.6,N
1546088735.9,286047001.6,N
1546088755.7,286047002.4,N
1546088775.6,286047002.1,N
1546088795.4,286047002.0,N
1546088815.2,286047002.4,N
1546088835.1,286047001.3,N
1546088836.0,286047001.3,N
1546088855.8,286047002.4,N
1546088875.6,286047002.8,N
1546088895.5,286047005.7,Y
1546088915.3,286047002.6,P
1546088935.2,286047002.5,N
1546088955.9,286047002.3,N
1546088975.7,286047002.3,Y
1546088995.6,286047001.2,P
1546089015.4,286046998.6,P
1546089035.3,286046998.7,N
1546089055.1,286046996.6,N
1546089056.0,286046996.6,N
1546089075.8,286046997.5,N
1546089095.7,286046997.4,N
1546089115.5,286046996.6,N
1546089135.4,286046997.1,N
1546089155.2,286046995.0,N
1546089175.0,286046995.1,N
1546089175.9,286046995.1,N
1546089195.8,286046995.5,N
1546089215.6,286046999.3,N
1546089235.5,286046999.6,N
1546089255.3,286046996.9,N
1546089275.1,286046995.3,N
1546089295.9,286046995.3,N
1546089315.7,286046994.1,N
1546089335.5,286046993.3,Y
1546089355.4,286046996.9,P
1546089375.2,286046996.8,P
1546089395.1,286046999.0,P
1546089396.0,286046999.0,N
1546089415.8,286046999.4,N
1546089435.6,286046999.9,N
1546089455.5,286046998.5,N
1546089475.3,286047002.1,N
1546089495.1,286047002.0,N
1546089515.9,286047000.3,N
1546089565.7,286046998.4,E
1546089575.7,286047000.4,N
1546089595.5,286047001.0,P
1546089615.3,286047000.9,N
1546089635.2,286047001.0,Y
1546089655.0,286046998.6,P
1546089655.9,286046998.6,N
1546089675.8,286047000.7,N
1546089695.6,286046998.1,N
1546089715.4,286046998.7,N
1546089735.3,286046998.9,N
1546089755.1,286046998.5,N
1546089775.9,286047001.0,N
1546089795.7,286047000.0,N
1546089815.5,286047000.2,N
1546089835.4,286046999.7,N
1546089855.2,286047002.6,N
1546089875.0,286047001.1,N
1546089875.9,286047001.1,N
1546089895.8,286046998.8,N
1546089915.6,286046998.6,N
1546089935.5,286047002.7,N
1546089955.3,286047000.5,N
1546089975.1,286047000.8,N
1546089995.9,286046999.2,N
1546090015.7,286046998.7,N
1546090035.5,286046999.8,N
1546090055.4,286046998.3,N
1546090075.2,286046998.2,N
1546090095.1,286046999.7,N
1546090096.0,286046999.7,N
1546090115.8,286047000.4,N
1546090135.6,286047000.0,N
1546090155.5,286047002.1,N
1546090175.3,286047000.3,N
1546090195.1,286047003.5,N
1546090215.9,286047004.0,N
1546090235.7,286047002.2,N
1546090255.6,286047000.2,N
1546090275.4,286047000.6,N
1546090295.2,286047002.6,N
1546090315.1,286047000.7,N
1546090316.0,286047000.7,N
1546090335.8,286046999.0,N
1546090355.7,286046999.3,N
1546090375.5,286046999.0,N
1546090395.3,286046999.0,N
1546090415.2,286046999.0,N
1546090435.9,286046998.4,N
1546090455.7,286047001.1,N
1546090475.6,286047002.4,N
1546090495.4,286047002.0,N
1546090515.3,286047003.9,N
1546090535.1,286047005.6,Y
1546090536.0,286047005.6,P
1546090555.8,286047001.4,N
1546090575.7,286047000.1,N
1546090595.5,286046998.1,N
1546090615.3,286047000.3,N
1546090635.2,286046999.8,N
1546090655.0,286047000.2,N
1546090655.9,286047000.2,N
1546090675.8,286047000.5,N
1546090695.6,286047000.0,N
1546090715.4,286047002.1,N
1546090735.3,286047004.1,N
1546090755.1,286047002.2,N
1546090775.9,286047002.1,N
1546090795.7,286047003.2,N
1546090815.5,286047001.8,N
1546090835.4,286047001.9,N
1546090855.2,286047004.4,N
1546090875.0,286047002.4,N
1546090875.9,286047002.4,N
1546090895.8,286047000.6,N
1546090915.6,286047000.3,N
1546090935.5,286046998.8,N
1546090955.3,286046998.2,N
1546090975.1,286046996.5,N
1546090995.9,286046997.1,N
1546091015.7,286046998.9,N
1546091035.5,286047001.0,N
1546091055.4,286046998.5,N
1546091075.2,286046999.6,N
1546091095.1,286046998.3,N
1546091096.0,286046998.3,N
1546091115.8,286046999.9,N
1546091135.6,286047000.2,N
1546091155.5,286047002.2,N
1546091175.3,286047002.8,N
1546091195.1,286047000.8,N
1546091215.9,286047000.8,N
1546091235.7,286047000.1,N
1546091255.6,286047000.6,N
1546091275.4,286046999.5,N
1546091295.2,286046999.2,N
1546091315.1,286046998.1,N
1546091316.0,286046998.1,N
1546091335.8,286046998.8,N
1546091355.7,286046997.1,N
1546091375.5,286046999.5,N
1546091395.3,286046998.4,N
1546091415.2,286046998.2,N
1546091435.0,286047000.4,N
1546091435.9,286047000.4,N
1546091455.8,286047002.6,N
1546091475.6,286046999.3,N
1546091495.4,286046997.7,N
1546091515.3,286046998.9,N
1546091535.1,286046998.4,N
1546091555.8,286046998.5,N
1546091575.7,286046999.5,N
1546091595.5,286046998.5,N
1546091615.4,286046998.8,N
1546091635.2,286046999.5,N
1546091655.0,286046996.8,N
1546091655.9,286046996.8,N
1546091675.8,286046997.8,N
1546091695.6,286046997.3,N
1546091715.4,286046997.1,N
1546091735.3,286046996.8,N
1546091755.1,286046997.9,N
1546091775.9,286046998.3,N
1546091795.7,286046996.6,N
1546091815.5,286046996.5,N
1546091835.4,286046999.5,N
1546091855.2,286046997.1,N
1546091875.0,286046997.7,N
1546091876.0,286046997.7,N
1546091895.8,286046995.0,Y
1546091915.6,286046997.4,P
1546091935.5,286046996.5,P
1546091955.3,286047000.6,N
1546091975.1,286047001.2,N
1546091995.9,286047000.6,N
